Skip Page Navigation
NASA JPL Caltech
NASA Logo - Jet Propulsion Laboratory + View the NASA Portal
+ Near-Earth Object (NEO) Program
Search JPL
JPL Home Earth Solar System Stars & Galaxies Technology
JPL Solar System Dynamics
BODIES ORBITS EPHEMERIDES TOOLS PHYSICAL DATA DISCOVERY FAQ SITE MAP
JPL Small-Body Database Browser
Search: [ help ]  
17626 (1996 AG2)
Classification: Main-belt Asteroid          SPK-ID: 2017626
Ephemeris | Orbit Diagram | Orbital Elements | Physical Parameters | Discovery Circumstances | Close-Approach Data ]

[ show orbit diagram ]
Orbital Elements at Epoch 2457600.5 (2016-Jul-31.0) TDB
Reference: JPL 9 (heliocentric ecliptic J2000)
 Element Value Uncertainty (1-sigma)   Units 
e .09050522807643914 5.7944e-08  
a 3.163037087497586 3.6707e-08 au
q 2.876765694479381 1.8232e-07 au
i 12.89464691779851 8.3593e-06 deg
node 311.3484260926175 2.7481e-05 deg
peri 98.99585907344998 6.0826e-05 deg
M 293.0530902658272 5.4126e-05 deg
tp 2457982.605146502180
(2017-Aug-17.10514650)
0.00031149 JED
period 2054.730431725498
5.63
3.5768e-05
9.793e-08
d
yr
n .1752054646397987 3.0499e-09 deg/d
Q 3.449308480515791 4.0029e-08 au
  Orbit Determination Parameters
   # obs. used (total)      851  
   data-arc span      10675 days (29.23 yr)  
   first obs. used      1985-02-13  
   last obs. used      2014-05-07  
   planetary ephem.      DE431  
   SB-pert. ephem.      SB431-BIG16  
   condition code      0  
   fit RMS      .52375  
   data source      ORB  
   producer      Otto Matic  
   solution date      2015-Mar-09 14:51:01  

Additional Information
 Earth MOID = 1.92283 au 
 Jupiter MOID = 1.89111 au 
 T_jup = 3.159 
[ show covariance matrix ]

Ephemeris | Orbit Diagram | Orbital Elements | Physical Parameters | Discovery Circumstances | Close-Approach Data ]

Physical Parameter Table
Parameter Symbol Value Units Sigma Reference Notes
absolute magnitude H 12.2 mag n/a MPO263504  
rotation period rot_per 5.7158 h n/a LCDB (Rev. 2016-February); Warner et al., 2009 Result based on less than full coverage, so that the period may be wrong by 30 percent or so.
Published Reference List:
[Waszczak, A.; Chang, C.-K.; Ofeck, E.O.; Laher, F.; et al. (2016) Astron. J. 150, A75.]

17626 (1996 AG2)          Discovered 1996-Jan-12 by Ueda, S., Kaneda, H. at Kushiro
Reference: 20001013/Numbers.arcLast Updated: 2004-04-19

[ show close-approach data ]
Alternate Designations
 1996 AG2 = 1985 CJ 
Ephemeris | Orbit Diagram | Orbital Elements | Physical Parameters | Discovery Circumstances | Close-Approach Data ]
ABOUT SSD CREDITS/AWARDS PRIVACY/COPYRIGHT GLOSSARY LINKS
FirstGov 2016-May-04 17:23 UT
(server date/time)  
NASA Home Page
Site Manager:   Ryan S. Park
Webmaster  Alan B. Chamberlin